#timestamp,LO_Frequency,Hit,StdDev 
1627912815.5,286047000.2,N
1627912835.3,286047000.4,N
1627912855.2,286047002.5,N
1627912875.9,286047002.6,N
1627912895.7,286047001.6,N
1627912915.6,286047001.6,N
1627912935.4,286047001.4,N
1627912955.2,286047002.1,N
1627912975.1,286047001.4,N
1627912976.0,286047001.4,N
1627912995.8,286047002.5,N
1627913015.7,286047002.5,N
1627913035.5,286047002.3,N
1627913055.3,286047000.0,N
1627913075.2,286046999.7,N
1627913095.9,286046999.8,N
1627913115.7,286046998.6,N
1627913135.6,286046999.2,N
1627913155.4,286047001.1,N
1627913175.2,286046998.2,N
1627913195.1,286047001.0,N
1627913196.0,286047001.0,N
1627913215.8,286047000.6,N
1627913235.7,286047001.1,N
1627913255.5,286046998.1,N
1627913275.3,286046998.2,N
1627913295.2,286047000.4,N
1627913315.0,286047000.8,N
1627913315.9,286047000.8,N
1627913335.8,286047001.1,N
1627913355.6,286047000.2,N
1627913375.4,286047001.0,N
1627913395.3,286047000.0,N
1627913445.1,286046998.4,E
1627913455.1,286047000.1,N
1627913456.0,286047000.1,P
1627913475.8,286047000.2,P
1627913495.6,286047000.3,Y
1627913515.5,286047000.4,P
1627913535.3,286047000.4,N
1627913555.2,286047000.8,P
1627913575.9,286047001.2,Y
1627913595.7,286046998.2,P
1627913615.6,286047000.4,N
1627913635.4,286046998.3,N
1627913655.2,286046999.0,N
1627913675.1,286046998.2,N
1627913676.0,286046998.2,N
1627913695.8,286047000.7,N
1627913715.7,286047000.8,N
1627913735.5,286047000.9,N
1627913755.3,286047000.7,N
1627913775.2,286047000.3,N
1627913795.0,286047000.9,N
1627913795.9,286047000.9,N
1627913815.7,286046999.6,N
1627913835.6,286046998.4,N
1627913855.4,286046999.1,N
1627913875.3,286046998.7,N
1627913895.1,286046998.9,N
1627913896.0,286046998.9,N
1627913915.8,286046998.4,N
1627913935.7,286046999.5,N
1627913955.5,286046998.9,N
1627913975.3,286046999.3,N
1627913995.2,286046996.9,Y
1627914015.0,286046999.0,P
1627914015.9,286046999.0,P
1627914035.8,286046998.7,P
1627914055.6,286046998.7,Y
1627914075.4,286047000.0,P
1627914095.3,286047000.0,N
1627914115.1,286047000.1,N
1627914135.9,286047002.2,Y
1627914155.7,286047002.6,P
1627914175.5,286047000.6,N
1627914195.4,286046999.3,N
1627914215.2,286046997.8,N
1627914235.0,286046997.7,N
1627914235.9,286046997.7,N
1627914255.8,286046996.5,N
1627914275.6,286046996.5,N
1627914295.5,286046999.0,N
1627914315.3,286046998.9,N
1627914335.1,286046998.8,N
1627914355.9,286046999.4,N
1627914375.7,286046996.8,N
1627914395.9,286046998.9,N
1627914415.7,286047001.1,N
1627914435.5,286046998.3,N
1627914455.4,286046998.4,N
1627914475.2,286047000.6,N
1627914495.0,286046996.8,N
1627914496.0,286046996.8,N
1627914515.8,286046997.0,N
1627914535.6,286046996.7,N
1627914555.5,286046996.9,N
1627914575.3,286046996.7,N
1627914595.1,286046996.6,N
1627914615.9,286046996.5,N
1627914635.7,286046999.6,N
1627914655.5,286046996.5,N
1627914675.4,286046999.2,N
1627914695.2,286046997.0,N
1627914715.1,286046999.2,N
1627914716.0,286046999.2,N
1627914735.8,286046996.6,N
1627914755.6,286046997.0,N
1627914775.5,286046997.1,N
1627914795.3,286046995.3,Y
1627914815.2,286046999.2,P
1627914835.9,286046998.8,N
1627914855.7,286047000.9,N
1627914875.6,286047000.6,N
1627914895.4,286047002.7,N
1627914915.2,286047002.4,N
1627914935.1,286047003.9,N
1627914936.0,286047003.9,N
1627914955.8,286047001.8,N
1627914975.7,286047001.6,N
1627914995.5,286047002.2,N
1627915015.3,286047001.9,N
1627915035.2,286047004.4,N
1627915055.0,286047002.4,N
1627915055.9,286047002.4,N
1627915075.7,286047002.5,N
1627915095.6,286047001.4,N
1627915115.4,286047001.7,N
1627915135.3,286047002.8,N
1627915155.1,286047001.6,N
1627915156.0,286047001.6,N
1627915175.8,286047002.8,N
1627915195.7,286047002.2,N
1627915215.5,286047002.2,N
1627915235.3,286047001.5,N
1627915255.2,286047001.4,N
1627915275.0,286047001.5,N
1627915275.9,286047001.5,N
1627915295.8,286047001.4,N
1627915315.6,286047003.9,N
1627915335.4,286046999.7,N
1627915355.3,286047002.2,N
1627915375.1,286047001.7,N
1627915395.8,286047001.6,N
1627915415.7,286047001.4,N
1627915435.5,286046999.7,N
1627915455.4,286047001.0,N
1627915475.2,286046998.3,N
1627915495.0,286047000.6,N
1627915495.9,286047000.6,N
1627915515.8,286047000.4,N
1627915535.6,286047000.1,N
1627915555.4,286047002.5,N
1627915575.3,286047000.1,N
1627915595.1,286047000.1,N
1627915615.9,286047001.0,N
1627915635.7,286047000.0,N
1627915655.5,286046999.3,N
1627915675.4,286046998.9,N
1627915695.2,286046997.0,N
1627915715.0,286046999.6,N
1627915716.0,286046999.6,N
1627915735.8,286046997.0,N
1627915755.6,286046997.1,N
1627915775.5,286046995.1,Y
1627915795.3,286046997.5,P
1627915815.1,286046993.4,P
1627915835.9,286046993.7,N
1627915855.7,286046993.8,N
1627915875.6,286046994.5,N
1627915895.4,286046996.4,N
1627915915.2,286046993.9,N
1627915935.1,286046995.2,N
1627915936.0,286046995.2,N
1627915955.8,286046998.0,N
1627915975.7,286046995.1,N
1627915995.5,286046996.2,N
1627916015.3,286046995.3,N
1627916035.2,286046997.7,N
1627916055.9,286046997.8,N
1627916075.7,286046997.9,N
1627916095.6,286046997.3,N
1627916115.4,286046998.0,N
1627916135.3,286046995.6,N
1627916155.1,286046995.3,N
1627916156.0,286046995.3,N
1627916175.8,286046994.9,N
1627916195.7,286046996.4,N
1627916215.5,286046997.3,N
1627916235.3,286046997.9,N
1627916255.2,286046998.0,N
1627916275.0,286046996.5,N
1627916275.9,286046996.5,N
1627916295.8,286046999.4,N
1627916315.6,286046998.7,N
1627916335.4,286046998.7,N
1627916355.3,286046998.5,N
1627916375.1,286047001.0,N
1627916395.9,286047001.0,N
